Regional Weather Roundup
Issued by NWS

Home | Current Version | Previous Version | Text Only | Print | Product List | Glossary Off
Versions: 1 2 3 4 5 6 7 8 9 10 11 12 13 14 15 16 17 18 19 20 21 22 23 24 25 26 27 28 29 30 31 32 33 34 35 36 37 38 39 40 41 42 43 44 45 46 47 48 49 50

000
ASUS43 KFSD 030810
RWRSD

WEATHER ROUNDUP FOR SOUTH DAKOTA
NATIONAL WEATHER SERVICE SIOUX FALLS SD
200 AM CST TUE MAR 03 2015

NOTE: "FAIR" INDICATES FEW OR NO CLOUDS BELOW 12,000 FEET WITH NO
SIGNIFICANT WEATHER AND/OR OBSTRUCTIONS TO VISIBILITY.


SDZ001>005-009-010-012>017-030900-
NORTHWEST AND NORTH CENTRAL SOUTH DAKOTA

CITY           SKY/WX    TMP DP  RH WIND       PRES   REMARKS
BUFFALO          N/A     17  12  80 NW21      29.79R WCI   0
FAITH            N/A     21   9  59 N33G44    29.76R WCI   2
MOBRIDGE       CLOUDY    25  18  74 N28G38    29.73R WCI   9
$$

SDZ012>016-024>037-041>051-057-063-072>074-030900-
SOUTHWEST AND SOUTH CENTRAL SOUTH DAKOTA

CITY           SKY/WX    TMP DP  RH WIND       PRES   REMARKS
RAPID CTY ARPT SNOW      24  22  91 N33G41    29.71R VSB 1/2 WCI   6
PIERRE         LGT SNOW  31  31 100 CALM      29.68F FOG
CUSTER         FLURRIES  22  16  78 N13G22    29.58R WCI  10
ELLSWORTH AFB  HVY SNOW  23  21  93 N25G35    29.72  VSB 0   WCI   7
PHILIP         CLOUDY    34  26  72 N25G33    29.68S WCI  21
PINE RIDGE     LGT SNOW  30  27  88 N15G23    29.64F FOG     WCI  19
SPEARFISH      LGT SNOW  19  16  86 N20G28    29.80R VSB 3/4 WCI   4
WINNER         CLOUDY    33  17  51 S10       29.66F WCI  25
$$

SDZ004>011-016>023-039-040-030900-
NORTHEAST SOUTH DAKOTA

CITY           SKY/WX    TMP DP  RH WIND       PRES   REMARKS
ABERDEEN       CLOUDY    30  22  72 S14       29.70F WCI  19
WATERTOWN      LGT SNOW  25  20  81 S15       29.73F WCI  13
SISSETON         N/A     26  23  88 S13       29.73F WCI  15
$$

SDZ017-020-022-023-036>040-048>070-030900-
SOUTHEAST SOUTH DAKOTA

CITY           SKY/WX    TMP DP  RH WIND       PRES   REMARKS
SIOUX FALLS    CLOUDY    26  19  74 SE9       29.77F WCI  17
HURON          CLOUDY    30  20  66 SE9       29.72F WCI  22
CHAMBERLAIN    CLOUDY    31  17  56 S7        29.68F WCI  24
MITCHELL         N/A     29  19  66 SE12      29.74F WCI  19
YANKTON        CLOUDY    28  18  64 SE9       29.77F WCI  20
$$

ABBREVIATIONS USED IN REMARKS
   TC - TEMPERATURE IN CELSIUS
  WCI - WIND CHILL INDEX
   HX - HEAT INDEX
  VSB - VISIBILITY



USA.gov is the U.S. government's official web portal to all federal, state and local government web resources and services.